sat.trackr.live / text

‹ back to catalog

STARLINK-30570

NORAD 58095 · 2023-160W

PAYLOAD ACTIVE UNKNOWN

§ Identity

Operator
Country
US
Launch date
2023-10-18
Launch site
AFETR
Launch vehicle
Mass (kg)
RCS (m²)

Purposes: comms

External: N2YO · Heavens-Above · Gunter

§ Orbital elements

Epoch: 2026-05-24T23:27:46.624608Z

Period
94.27 min
Inclination
43.0057°
Eccentricity
0.0001312
Mean motion
15.27566155 rev/d
Perigee alt
482.2 km
Apogee alt
484.0 km
Semi-major
6,861.2 km
B*
-2.7102e-5
RAAN
6.9960°
Arg perigee
269.0413°
Mean anomaly
91.0288°
Rev number
14,461

§ Raw data

STARLINK-305701 58095U 23160W   26144.97762297 -.00001008  00000+0 -27102-4 0  99912 58095  43.0057   6.9960 0001312 269.0413  91.0288 15.27566155144617

JSON: /api/v1/satellites/58095 · /tle

For live sub-satellite position, see the globe view (requires WebGL).

§ Visibility from observer

Set your observer location to see the next 7 days of passes ≥ 10°. The values pass through the URL so the page stays shareable.

No JS? Fill the form by hand. The geolocation button needs JavaScript.